Location: Arcizac
(43.0933°N, 0.0112°E)
Time: 09:00:07
(UTC+00:00)

STARLINK-48 - Pass Details

Date: 14 December 2019
Orbit: 505 x 509 km, 53.0° (Epoch: 19 January)

Event Time Altitude Azimuth Distance (km) Brightness Sun altitude
Rises 17:26:55 0° 208° (SSW) 2,591 7.9 -10.9°
Reaches altitude 10° 17:29:15 10° 198° (SSW) 1,711 6.7 -11.3°
Maximum altitude 17:32:43 32° 134° (SE) 892 4.5 -11.9°
Enters shadow 17:34:53 18° 83° (E) 1,281 4.9 -12.2°
